Location: Kaiser
(34.0939°N, 117.4889°W)
Time: 21:36:17
(UTC+00:00)

FENGYUN 3A - Pass Details

Date: 29 October 2020
Orbit: 824 x 835 km, 98.4° (Epoch: 26 November)

Event Time Altitude Azimuth Distance (km) Brightness Sun altitude
Rises 12:35:11 0° 9° (N) 3,390 6.9 -19.6°
Reaches altitude 10° 12:37:34 10° 7° (N) 2,452 6.1 -19.1°
Maximum altitude 12:42:57 67° 285° (WNW) 902 3.6 -18.0°
Drops below altitude 10° 12:48:18 10° 204° (SSW) 2,435 5.9 -16.9°
Sets 12:50:39 0° 201° (SSW) 3,364 6.7 -16.4°
